This demonstration page uses our WeatherBlox Daily Observations layout. Learn more.

Left ArrowRight Arrow

40.92501, -98.34201

Hourly Observations for June 7, 2020

Temp ( °F °C ) Dew Point ( °F °C ) Humidity (%) Winds ( mph kmh ) Pressure ( in mb ) Visibility ( mi km ) Precip ( " mm )
12:53 am 00:53 Clear 80 26.7 66 18.9 62 62 S 17 28 29.76 1008 10 16 0.00 0.00
1:53 am 01:53 Clear 79 26.1 67 19.4 67 67 S 18 30 29.75 1007 10 16 0.00 0.00
2:53 am 02:53 Clear 79 26.1 67 19.4 67 67 S 21 33 29.74 1007 10 16 0.00 0.00
3:53 am 03:53 Clear 78 25.6 67 19.4 69 69 S 21 33 29.73 1007 10 16 0.00 0.00
4:53 am 04:53 Clear 77 25 67 19.4 71 71 S 20 31 29.73 1007 10 16 0.00 0.00
5:53 am 05:53 Clear 76 24.4 67 19.4 74 74 S 17 28 29.74 1007 10 16 0.00 0.00
6:53 am 06:53 Sunny 76 24.4 68 20 77 77 S 17 28 29.75 1007 10 16 0.00 0.00
7:53 am 07:53 Sunny 79 26.1 68 20 69 69 S 21 33 29.75 1007 10 16 0.00 0.00
8:53 am 08:53 Sunny 82 27.8 66 18.9 58 58 S 26 43 29.74 1007 10 16 0.00 0.00
9:53 am 09:53 Sunny 84 28.9 66 18.9 55 55 S 25 41 29.74 1007 10 16 0.00 0.00
10:53 am 10:53 Sunny 87 30.6 66 18.9 50 50 S 26 43 29.72 1007 10 16 0.00 0.00
11:53 am 11:53 Sunny 89 31.7 63 17.2 42 42 S 28 44 29.71 1006 10 16 0.00 0.00
12:53 pm 12:53 Sunny 92 33.3 62 16.7 37 37 SSW 24 39 29.69 1005 10 16 0.00 0.00
1:53 pm 13:53 Sunny 93 33.9 62 16.7 36 36 S 28 44 29.67 1005 10 16 0.00 0.00
2:53 pm 14:53 Sunny 92 33.3 62 16.7 37 37 S 28 44 29.65 1004 10 16 0.00 0.00
3:53 pm 15:53 Sunny 94 34.4 60 15.6 32 32 SSE 31 50 29.62 1003 8 13 0.00 0.00
4:53 pm 16:53 Sunny 93 33.9 60 15.6 33 33 S 30 48 29.62 1003 10 16 0.00 0.00
5:53 pm 17:53 Sunny 92 33.3 58 14.4 32 32 S 35 56 29.60 1003 10 16 0.00 0.00
6:53 pm 18:53 Sunny 91 32.8 57 13.9 32 32 SSE 33 54 29.60 1002 10 16 0.00 0.00
7:53 pm 19:53 Sunny 89 31.7 56 13.3 33 33 S 26 43 29.60 1002 10 16 0.00 0.00
8:53 pm 20:53 Sunny 86 30 57 13.9 37 37 SSE 18 30 29.61 1003 10 16 0.00 0.00
9:53 pm 21:53 Clear 83 28.3 54 12.2 37 37 SSE 20 31 29.62 1003 10 16 0.00 0.00
10:53 pm 22:53 Clear 81 27.2 57 13.9 44 44 S 23 37 29.63 1004 10 16 0.00 0.00
11:53 pm 23:53 Clear 80 26.7 59 15 49 49 SSE 26 43 29.62 1003 10 16 0.00 0.00

Powered by AerisWeather